Погода Богородское

Погода Богородское : погода сейчас, прогноз погоды и архив. Всё, что Вы хотите узнать о погоде Богородское!

Поиск расширенной информации на нашем сайте:

Другие новости

Новости СМИ2

Главная страница сайта

Новости сайта

02.10.2013

Напоминаем, что на нашем новом сайте вы можете получить высокодетализированные прогнозы погоды по пунктам России, СНГ и мира (включающие важные для авиации метеовеличины, такие как направление и скорость ветра, видимость, явления погоды, количество и форма облачности, нижняя и верхняя граница облачности), а также ознакомиться с разнообразными материалами по авиационной метеорологии и подборкой полезных ссылок на эту тему.

Сайт Метеоцентр.Азия посвящён разработке технологий оптимизации авиаметеорологического обслуживания, включая проектирование и перспективное создание нескольких автоматизированных авиаметеорологических систем:
- система выпуска высокодетальных прогностических карт явлений погоды для нижнего воздушного пространства по России и ближнему зарубежью;
- система верификации прогнозов TAF (выпускаемых синоптиками официальных АМСГ РФ и ближнего зарубежья) и AUTOTAF (выпускаемых сайтом Метеоцентр.Азия) - выявление ошибок, онлайн-сопоставление с фактической погодой METAR, автоматическое внесение коррективов в прогнозы при резком отклонении фактической погоды от прогноза, подсчёт оправдываемости прогнозов по элементам и в целом;
- система обработки, анализа и отображения авиаметеорологической информации для применения провайдерами метеорологической информации.

Рекомендуем: Продаю машину для чистки жалюзи.

Погода Богородское - сегодня

Время (UTC), дата Ветер
(°,м/с) 
Видим.   Явления Облачность Т
(°С)
Тd
(°С)
f(%) Тe
(°С)
Pmin
(гПа)
dP
(гПа)
Po
(мм)
O2
(г/м3)
Тmin Tmax R s Состояние
почвы
12 24.06.17 360 (С) 20000 м    10/10 600 м кучево-дожд. 
[Cb cap]
+12.3 +9.9 85 +13  1012.7  1.2  756  290           
15 24.06.17 060 (СВ) 20000 м    10/10 600 м кучево-дожд. 
[Cb cap]
+11.4 +8.2 81 +11  1013.2  0.5  757  291           
18 24.06.17 060 (СВ) 20000 м    10/10 600 м кучево-дожд. 
[Cb cap]
+10 +7.2 83 +10  1013.4  0.2  757  293           
21 24.06.17 060 (СВ) 20000 м    3/3 600 м 
[Sc]
+10.5 +6.3 75 +10  1013.3  0.1  757  293  +8.7        влажная 
00 25.06.17 050 (СВ) 20000 м    3/3 600 м 
[Sc]
+14.2 +6.7 61 +14  1012.8  -0.4  757  289           
03 25.06.17 270 (З) 20000 м    4/4 600 м 
[Sc]
+18.2 +7.8 51 +19  1010.8  -2  755  284           
06 25.06.17 190 (Ю) 20000 м    5/4 600 м средняя 
[Sc|Ac trans]
+18.9 +9.8 55 +21  1009.7  -1.1  754  282           
09 25.06.17 210 (ЮЗ) 20000 м    3/1 600 м кучево-дожд., средняя, верхняя 
[Cb cap|Ac trans|Ci fib]
+18.2 +9.2 56 +19  1009.4  -0.3  754  283    +19.5       
12 25.06.17 180 (Ю) 20000 м    1/0 верхняя 
[Ci fib]
+13.7 +8.2 69 +15  1009.8  0.4  754  288           
15 25.06.17 130 (ЮВ) 20000 м    ясно 
+8.9 +6.3 84 +10  1009.9  754  293           
18 25.06.17 090 (В) 20000 м    3/0 верхняя 
[Ci fib]
+6.6 +5.6 93 +8  1009.1  -0.9  754  296           
21 25.06.17 тихо ()   20000 м    3/0 верхняя 
[Ci sp]
+11.6 +7.8 77 +12  1009.3  0.4  754  290  +6.3        сухая 
00 26.06.17 250 (З) 20000 м    3/0 средняя, верхняя 
[Ac trans|Ci fib]
+16.7 +8 56 +18  1009.3  754  285           
03 26.06.17 310 (СЗ) 20000 м    4/1 600 м средняя, верхняя 
[Cu hum|Ac As|Ci]
+20.4 +7.7 44 +20  1008.1  -1  753  281           
06 26.06.17 090 (В) 20000 м    4/3 600 м средняя, верхняя 
[Cu med, cong|Ac As|Ci fib]
+20.8 +4.2 34 +21  1008.3  0.2  753  281           
09 26.06.17 090 (В) 3{11}  20000 м    4/0 средняя, верхняя 
[Ac cast|Ci fib]
+18.1 +4.5 41 +19  1009.5  1.1  754  284    +22       
12 26.06.17 020 (С) 20000 м    6/0 средняя 
[Ac trans]
+13.9 +4 51 +14  1010.8  1.3  755  289           
15 26.06.17 050 (СВ) 20000 м    8/0 средняя 
[Ac trans]
+11.7 +5.7 67 +12  1012  1.1  756  291           
18 26.06.17 060 (СВ) 20000 м    9/8 600 м средняя 
[Sc|Ac trans]
+10.7 +5.4 70 +12  1012.3  0.3  756  292           
21 26.06.17 030 (СВ) 20000 м    10/6 1000 м средняя 
[Sc|Ac lent]
+11 +5.9 71 +11  1013.3  757  292  +10.2        сухая 
00 27.06.17 050 (СВ) 20000 м    10/10 600 м кучево-дожд. 
[Cb cap]
+13.5 +6.8 64 +14  1013.4  0.1  757  290           
03 27.06.17 050 (СВ) 20000 м    9/9 600 м 
[Sc]
+16.2 +7.2 55 +16  1012.7  -0.7  756  287           
06 27.06.17 140 (ЮВ) 20000 м    4/3 600 м средняя 
[Sc|Ac lent]
+18 +8.7 54 +18  1011.6  -1  756  284           
12 27.06.17 260 (З) 20000 м    1/0 средняя 
[Ac lent]
+14.4 +11 80 +18  1011.8  0.3  756  287           
15 27.06.17 140 (ЮВ) 20000 м    ясно 
+8.5   1011.6  -0.3  756             
Время (UTC), дата Ветер
(°,м/с) 
Видим.   Явления Облачность Т
(°С)
Тd
(°С)
f(%) Тe
(°С)
Pmin
(гПа)
dP
(гПа)
Po
(мм)
O2
(г/м3)
Тmin Tmax R s Состояние
почвы

Для получения пояснительной информации подведите курсор к названию столбца.

ПОГОДА Богородское - архив

Всё, что Вы хотите узнать о погоде Богородское - удобно и подробно!

Выберите нужную дату (начиная с 1 января 2015* года) и нажмите кнопку "Найти".
Будут отображены архивные сводки погоды по пункту Богородское, начиная с указанной даты.


Отображать данные в формате CSV (для использования в таблицах Excel)


Внимание! Наш архив погоды предназначен исключительно для личного некоммерческого использования в познавательных целях. Если Вам необходимы официальные справки о состоянии погоды (для производственных, юридических, коммерческих и т.п. целей), обращайтесь в органы Росгидромета.

*Примечание: данная дата относится к архиву по метеостанциям СССР (Россия, СНГ, Балтия).
Архив по метеостанциям Зарубежной Европы и Азии (кроме Китая) хранится 10 дней, по другим регионам земного шара (Китай, Африка, Америка, Австралия, Океания) - 1 день.

Богородское - район местоположения метеостанции


Название, широта, долгота, высота метеостанции:
Богородское 52.4°ш. 140.5°д. 35 м над ур. моря [Российская Федерация]

Дополнительная информация

В oтличие oт бoльшинства пoгoдных сайтoв мы публикуем пoдрoбную метеoинфoрмацию в детальнoм прoфессиoнальнoм фoрмате.

Характеристики температуры и влажнoсти вoздуха измеряются на высoте 2 м в тени вдали oт зданий и деревьев.
Скoрoсть ветра измеряется на высoте 10 м (на урoвне рoста челoвека скoрoсть ветра ниже в 1.5-2 раза). Если метеoстанция нахoдится в гoрoде или в лесу, тo скoрoсть ветра занижена на 2-4 м/с пo сравнению с oткрытым местoм. Скoрoсть ветра над акватoриями крупных рек и oзёр, а также на вершинах хoлмoв на 2-5 м/с выше, чем в oбычных услoвиях.
Атмoсфернoе давление в разных тoчках местнoсти мoжет значительнo oтличаться oт давления на метеoстанции, в зависимoсти oт услoвий рельефа (при пoдъёме на 10 м давление пoнижается примернo на 1 мм рт.ст.).